[[{"header":{"parameterUnit":"m.s-1","parameterCategory":1,"la1":30.2991,"la2":30.254,"lo1":-89.0895,"lo2":-89.0444,"dy":0.0017,"dx":0.0017,"nx":28,"ny":28,"refTime":"2024-07-31T03:00:00:Z","depth":0,"parameterNumber":2,"parameterNumberName":"U-component_of_WINDS"},"data":[0,0,0,0,0,0,0,0,0,0,0,0,0,0,0,0,0,0,0,0,0,0,0,0,0,0,0,0,0,0,0,0,0,0,0,0,0,0,0,0,0,0,0,0,0,0,0,0,0,0,0,0,0,0,0,0,0,0,2.6045,2.6046,0,2.6167,2.6168,2.617,2.6144,2.6142,2.6139,2.6137,2.6267,2.6273,2.6278,0,0,0,0,0,0,0,0,0,0,0,0,0,2.5793,2.5798,2.6045,2.6046,2.6048,2.6167,2.6168,2.617,2.6144,2.6142,2.6139,2.6136,2.6266,2.6272,2.6279,0,0,0,0,0,0,0,0,0,0,0,0,0,2.5908,2.58,2.6045,2.6049,2.6051,2.6166,2.6169,2.6171,2.6145,2.6142,2.6138,2.6135,2.6263,2.6272,2.628,2.64,0,0,2.6305,2.6309,0,0,0,0,0,0,0,0,2.5902,2.5917,2.6047,2.6049,2.6051,2.6137,2.6128,2.6248,2.6146,2.6109,2.6137,2.6133,2.6227,2.6238,2.6269,2.6406,2.6412,2.6306,2.6311,2.6315,2.6317,0,0,0,0,0,0,0,2.5894,2.5912,2.6093,2.6049,2.6051,2.6047,2.6059,2.615,2.6186,2.6112,2.6111,2.6125,2.6228,2.6261,2.6272,2.6414,2.6306,2.6313,2.6319,2.6322,2.6655,2.6659,0,0,0,0,0,0,2.5883,2.5905,2.6089,2.6097,2.5966,2.6054,2.6068,2.6113,2.6185,2.6193,2.6128,2.6124,2.6248,2.6262,2.6276,2.6421,2.6315,2.6323,2.6327,2.6652,2.6656,2.666,0,0,0,0,0,0,2.5878,2.59,2.6084,2.6001,2.6024,2.6062,2.6113,2.6117,2.615,2.6197,2.6203,2.6155,2.6246,2.6264,2.6369,2.6426,2.6326,2.6334,2.6647,2.6653,2.6658,2.6713,0,0,0,0,0,0,2.5871,2.5898,2.5943,2.6002,2.6028,2.6174,2.6116,2.6122,2.6164,2.6159,2.6224,2.6231,2.6245,2.6357,2.6377,2.6435,2.6341,2.6642,2.665,2.6657,2.6706,2.672,2.6732,0,0,0,0,0,2.5862,2.5955,2.5946,2.5968,2.6085,2.6178,2.6193,2.6205,2.6169,2.6215,2.6245,2.6229,2.6416,2.6367,2.6391,2.6452,2.6639,2.6648,2.6656,2.6701,2.6717,2.6731,0,0,0,0,0,0,2.5904,2.5963,2.5953,2.6068,2.6117,2.6173,2.6232,2.6222,2.6285,2.6278,2.6291,2.6306,2.6413,2.6443,2.6388,2.6572,2.6522,2.6536,2.6548,2.6565,2.6577,2.6568,2.6348,0,0,0,0,0,2.5926,2.5995,2.6043,2.6139,2.6165,2.6194,2.6235,2.6239,2.6292,2.6314,2.6351,2.6405,2.6475,2.6521,2.6589,2.671,2.6724,2.6764,2.6777,2.6787,2.6799,2.6865,2.6883,2.6689,2.6689,2.6689,0,0,2.5974,2.6014,2.6057,2.6149,2.6188,2.626,2.6212,2.629,2.6344,2.6326,2.6427,2.6456,2.6517,2.663,2.6682,2.6658,2.6855,2.6798,2.6805,2.6812,2.6876,2.6894,2.6911,2.6695,2.6694,2.6693,0,0,2.6097,2.6134,2.6218,2.6258,2.6317,2.6336,2.6356,2.6413,2.6431,2.6532,2.652,2.6585,2.6706,2.6749,2.6787,2.6925,2.6914,2.6947,2.7013,2.7078,2.7093,2.7107,2.7157,2.7174,2.6959,2.6959,2.6959,0,2.6149,2.6255,2.6263,2.6342,2.6383,2.6368,2.6454,2.6493,2.6572,2.6601,2.6573,2.6724,2.6764,2.6888,2.6921,2.6952,2.6977,2.694,2.709,2.7104,2.7117,2.7165,2.7183,2.6963,2.6962,2.6962,2.6961,0,2.6316,2.639,2.6451,2.6525,2.6573,2.6656,2.6678,2.6725,2.6726,2.6747,2.6851,2.6897,2.6974,2.7003,2.7005,2.7127,2.7111,2.7086,2.7037,2.7139,2.7184,2.7202,2.6968,2.6967,2.6965,2.6965,0,0,2.647,2.6547,2.6569,2.6603,2.6667,2.6725,2.6806,2.6879,2.692,2.6975,2.7045,2.7147,2.7124,2.7168,2.7174,2.7231,2.7337,2.72,2.7201,2.7224,2.7475,2.7493,2.7514,2.733,2.7333,2.7336,2.747,0,2.6599,2.6742,2.6751,2.688,2.6949,2.6935,2.7006,2.7054,2.7077,2.7139,2.7165,2.7237,2.7201,2.7227,2.7283,2.7313,2.7388,2.7303,2.7396,2.7399,2.7381,2.7538,2.7557,2.7682,2.7488,2.7491,2.7493,0,2.6769,2.6827,2.6963,2.7016,2.7045,2.7109,2.7176,2.7236,2.729,2.7302,2.7349,2.7348,2.7433,2.7379,2.7497,2.7439,2.7478,2.7498,2.7503,2.7513,2.7452,2.7552,2.7722,2.774,2.7521,2.7518,2.7516,0,2.6869,2.6981,2.7076,2.7105,2.7169,2.7215,2.7244,2.7294,2.7337,2.7396,2.7425,2.7494,2.7532,2.7586,2.7604,2.7563,2.7721,2.7669,2.7735,2.7735,2.777,2.7767,2.7948,2.7794,2.7793,2.7793,2.7792,0,2.7012,2.7096,2.7121,2.718,2.7274,2.7284,2.7377,2.7403,2.7448,2.7513,2.7505,2.7567,2.7585,2.765,2.7665,2.776,2.7778,2.7791,2.7794,2.7792,2.779,2.7818,2.781,2.7798,2.7797,2.7796,2.7795,0,2.714,2.716,2.7263,2.7314,2.7329,2.7396,2.7441,2.7498,2.7519,2.7601,2.7621,2.7654,2.773,2.7752,2.7844,2.7854,2.7966,2.7961,2.7947,2.7948,2.8012,2.8006,2.8218,2.8246,2.8072,2.8074,2.8075,0,2.723,2.7294,2.7352,2.7394,2.7424,2.7492,2.7535,2.7548,2.7593,2.7659,2.7708,2.7783,2.7843,2.7965,2.7998,2.8068,2.8065,2.8135,2.8076,2.8072,2.8067,2.8063,2.807,2.8146,2.8148,2.8149,2.8151,0,2.7389,2.7396,2.7457,2.7523,2.7574,2.7626,2.7677,2.7712,2.7732,2.7784,2.786,2.7907,2.7999,2.8073,2.8144,2.8176,2.8168,2.8168,2.8187,2.8186,2.8176,2.8183,2.7978,2.8164,2.8163,2.8162,2.8161,2.816,2.7502,2.7557,2.7606,2.7675,2.7714,2.7761,2.7817,2.7843,2.7907,2.7982,2.7986,2.8069,2.8121,2.8214,2.825,2.8316,2.8295,2.8323,2.833,2.8337,2.8342,2.8165,2.8329,2.8328,2.8328,2.8328,2.8327,0,2.766,2.769,2.7754,2.7823,2.7878,2.7862,2.7917,2.7964,2.8036,2.8085,2.8143,2.8231,2.8303,2.8341,2.8413,2.8458,2.8456,2.8477,2.8474,2.8481,2.8356,2.8332,2.8477,2.8477,2.8477,2.8477,2.8477,2.8477,2.7749,2.7843,2.7855,2.7967,2.7997,2.8077,2.811,2.8153,2.8192,2.8289,2.8348,2.8371,2.8416,2.8491,2.8556,2.8565,2.8592,2.8615,2.8623,2.8505,2.849,2.8475,2.8453,2.8621,2.8621,2.8743,2.8744,2.8745]},{"header":{"parameterUnit":"m.s-1","parameterCategory":1,"la1":30.2991,"la2":30.254,"lo1":-89.0895,"lo2":-89.0444,"dy":0.0017,"dx":0.0017,"nx":28,"ny":28,"refTime":"2024-07-31T03:00:00:Z","depth":0,"parameterNumber":3,"parameterNumberName":"V-component_of_WINDS"},"data":[0,0,0,0,0,0,0,0,0,0,0,0,0,0,0,0,0,0,0,0,0,0,0,0,0,0,0,0,0,0,0,0,0,0,0,0,0,0,0,0,0,0,0,0,0,0,0,0,0,0,0,0,0,0,0,0,0,0,-1.0323,-1.0323,0,-1.0261,-1.026,-1.026,-1.0219,-1.0219,-1.0219,-1.0219,-1.0153,-1.0152,-1.015,0,0,0,0,0,0,0,0,0,0,0,0,0,-1.0405,-1.0404,-1.0323,-1.0323,-1.0322,-1.0261,-1.026,-1.026,-1.0219,-1.0219,-1.0219,-1.0219,-1.0154,-1.0152,-1.015,0,0,0,0,0,0,0,0,0,0,0,0,0,-1.0359,-1.0403,-1.0323,-1.0295,-1.0291,-1.0261,-1.026,-1.0259,-1.022,-1.0219,-1.0219,-1.0218,-1.0154,-1.0152,-1.015,-1.0143,0,0,-1.0143,-1.0142,0,0,0,0,0,0,0,0,-1.0361,-1.0356,-1.03,-1.0296,-1.0293,-1.0248,-1.0265,-1.022,-1.022,-1.0247,-1.0219,-1.0218,-1.0185,-1.018,-1.0169,-1.014,-1.0137,-1.0143,-1.0141,-1.014,-1.014,0,0,0,0,0,0,0,-1.0365,-1.0358,-1.0299,-1.0299,-1.0295,-1.0284,-1.0277,-1.0256,-1.0219,-1.0244,-1.0241,-1.0235,-1.0183,-1.0171,-1.0167,-1.0136,-1.0143,-1.0141,-1.0139,-1.0138,-1.0098,-1.0098,0,0,0,0,0,0,-1.0373,-1.0361,-1.0301,-1.0297,-1.0327,-1.0283,-1.0275,-1.0263,-1.0219,-1.0212,-1.0235,-1.0233,-1.0175,-1.017,-1.0165,-1.0153,-1.014,-1.0138,-1.0137,-1.0097,-1.0098,-1.0098,0,0,0,0,0,0,-1.0375,-1.0368,-1.0303,-1.0328,-1.0319,-1.0282,-1.0268,-1.0261,-1.025,-1.0212,-1.0204,-1.023,-1.0175,-1.0168,-1.0149,-1.0151,-1.0137,-1.0135,-1.0097,-1.0098,-1.0098,-1.0131,0,0,0,0,0,0,-1.0377,-1.0369,-1.0366,-1.0328,-1.0318,-1.0289,-1.0268,-1.0261,-1.0246,-1.0243,-1.0205,-1.0199,-1.0174,-1.0152,-1.0147,-1.0147,-1.0133,-1.0097,-1.0097,-1.0098,-1.013,-1.0133,-1.0135,0,0,0,0,0,-1.038,-1.0378,-1.0367,-1.0359,-1.0314,-1.0289,-1.0283,-1.0255,-1.0247,-1.0244,-1.0219,-1.02,-1.0152,-1.0151,-1.0144,-1.0144,-1.0097,-1.0097,-1.0098,-1.0128,-1.0132,-1.0135,0,0,0,0,0,0,-1.0417,-1.0373,-1.0359,-1.0345,-1.0321,-1.0282,-1.0278,-1.026,-1.0238,-1.0236,-1.0202,-1.0193,-1.0177,-1.0159,-1.0159,-1.0135,-1.0122,-1.0121,-1.0147,-1.015,-1.0153,-1.0158,-1.0131,0,0,0,0,0,-1.0423,-1.0407,-1.0369,-1.036,-1.0349,-1.0316,-1.0304,-1.0284,-1.0258,-1.0248,-1.0221,-1.0196,-1.0175,-1.0162,-1.014,-1.0127,-1.0118,-1.0123,-1.0126,-1.0129,-1.0128,-1.0119,-1.0121,-1.01,-1.01,-1.01,0,0,-1.0436,-1.041,-1.0402,-1.0367,-1.0346,-1.0329,-1.0307,-1.0291,-1.0278,-1.0245,-1.0225,-1.0205,-1.0174,-1.0158,-1.0149,-1.0142,-1.0132,-1.0129,-1.0132,-1.013,-1.0119,-1.0121,-1.0123,-1.0101,-1.0101,-1.01,0,0,-1.0451,-1.043,-1.042,-1.04,-1.0369,-1.0347,-1.0344,-1.0308,-1.0294,-1.0273,-1.0248,-1.0232,-1.0196,-1.0175,-1.016,-1.0167,-1.0148,-1.0161,-1.0175,-1.0166,-1.0167,-1.0168,-1.017,-1.0171,-1.016,-1.016,-1.0161,0,-1.0471,-1.0446,-1.0417,-1.0401,-1.0386,-1.0356,-1.0345,-1.0327,-1.029,-1.028,-1.0272,-1.0227,-1.0204,-1.0182,-1.0183,-1.0172,-1.0168,-1.0164,-1.017,-1.017,-1.0171,-1.0172,-1.0173,-1.0162,-1.0162,-1.0162,-1.0162,0,-1.0471,-1.0454,-1.0449,-1.0415,-1.0399,-1.0386,-1.0354,-1.0342,-1.0324,-1.0302,-1.0281,-1.0253,-1.0225,-1.0218,-1.02,-1.0193,-1.0189,-1.0176,-1.0162,-1.0175,-1.0175,-1.0176,-1.0165,-1.0164,-1.0163,-1.0163,0,0,-1.0507,-1.0457,-1.0456,-1.044,-1.0403,-1.0389,-1.0374,-1.0347,-1.0336,-1.0312,-1.0298,-1.0268,-1.0256,-1.0238,-1.0218,-1.021,-1.0216,-1.0198,-1.0196,-1.0201,-1.0205,-1.0215,-1.0216,-1.0204,-1.0204,-1.0204,-1.0207,0,-1.0516,-1.0488,-1.0462,-1.0443,-1.0426,-1.0397,-1.0384,-1.0359,-1.0339,-1.032,-1.0297,-1.0277,-1.0262,-1.0251,-1.0242,-1.0217,-1.0216,-1.0217,-1.0189,-1.0189,-1.0197,-1.0216,-1.0226,-1.0231,-1.0207,-1.0207,-1.0207,0,-1.0523,-1.05,-1.048,-1.0444,-1.0436,-1.0425,-1.0397,-1.0381,-1.0352,-1.0337,-1.0318,-1.0296,-1.0278,-1.0267,-1.0241,-1.0242,-1.0229,-1.0215,-1.0214,-1.021,-1.0198,-1.0211,-1.0232,-1.0232,-1.0207,-1.0207,-1.0207,0,-1.055,-1.0514,-1.0497,-1.0485,-1.0443,-1.0435,-1.0417,-1.0389,-1.0374,-1.035,-1.034,-1.0314,-1.0299,-1.0279,-1.0251,-1.0246,-1.0227,-1.0214,-1.0214,-1.0215,-1.0211,-1.0211,-1.0229,-1.0204,-1.0204,-1.0204,-1.0204,0,-1.0562,-1.0551,-1.0509,-1.0499,-1.0484,-1.0454,-1.044,-1.042,-1.0394,-1.0379,-1.0352,-1.0338,-1.0301,-1.0283,-1.026,-1.0241,-1.0235,-1.0222,-1.0216,-1.0224,-1.0226,-1.0215,-1.0213,-1.0204,-1.0204,-1.0204,-1.0204,0,-1.059,-1.0562,-1.0541,-1.0504,-1.0494,-1.0485,-1.0452,-1.044,-1.0418,-1.0398,-1.0392,-1.0357,-1.0333,-1.0303,-1.027,-1.0255,-1.0238,-1.0229,-1.0248,-1.0244,-1.0245,-1.0245,-1.0256,-1.0255,-1.0232,-1.0232,-1.0232,0,-1.06,-1.059,-1.0551,-1.0539,-1.0522,-1.0503,-1.0488,-1.0457,-1.0442,-1.0408,-1.04,-1.0375,-1.0352,-1.0316,-1.0287,-1.0261,-1.0251,-1.0256,-1.0247,-1.0255,-1.025,-1.025,-1.0249,-1.0258,-1.0259,-1.0259,-1.0259,0,-1.0619,-1.0605,-1.0585,-1.0559,-1.0542,-1.052,-1.0497,-1.0488,-1.0452,-1.0436,-1.0412,-1.0395,-1.0361,-1.0335,-1.0306,-1.0286,-1.0267,-1.0263,-1.0261,-1.0269,-1.028,-1.0273,-1.0253,-1.0263,-1.0262,-1.0262,-1.0262,-1.0262,-1.0637,-1.0627,-1.0598,-1.0576,-1.0555,-1.0534,-1.0521,-1.0497,-1.0476,-1.0446,-1.0429,-1.0405,-1.0376,-1.0334,-1.0315,-1.0295,-1.0288,-1.0286,-1.0285,-1.0285,-1.0287,-1.0283,-1.029,-1.029,-1.029,-1.029,-1.029,0,-1.0655,-1.0634,-1.0614,-1.0583,-1.0565,-1.0548,-1.0522,-1.0507,-1.0487,-1.0462,-1.044,-1.0412,-1.0387,-1.0356,-1.0328,-1.0318,-1.0309,-1.0312,-1.0312,-1.0308,-1.0296,-1.03,-1.0321,-1.0321,-1.0321,-1.0321,-1.0321,-1.0321,-1.0662,-1.0643,-1.0626,-1.0597,-1.0576,-1.0553,-1.0539,-1.0519,-1.0498,-1.0468,-1.0447,-1.0427,-1.0399,-1.0369,-1.0345,-1.0337,-1.0328,-1.0334,-1.0322,-1.0312,-1.0309,-1.0306,-1.0309,-1.0332,-1.0332,-1.0336,-1.0336,-1.0336]}]]